Ashland, WI

10:04 PM CDT on May 25, 2017 (GMT -0500)
Kennedy Memorial

Weather History for KASX - July, 2013

Change the Weather History Date:

Friday, July 19, 2013

  Actual Average Record
Temperature  
Mean Temperature 73 °F -  
Max Temperature 82 °F 81 °F 93 °F (1977)
Min Temperature 61 °F 56 °F 39 °F (1965)
Cooling Degree Days 8    
Growing Degree Days 23 (Base 50)    
Moisture  
Dew Point 65 °F    
Average Humidity 75    
Maximum Humidity 100    
Minimum Humidity 43    
Precipitation  
Precipitation 0.70 in - - ()
Sea Level Pressure  
Sea Level Pressure 29.71 in    
Wind  
Wind Speed 11 mph (West)    
Max Wind Speed 18 mph    
Max Gust Speed 30 mph    
Visibility 8 miles    
Events Rain , Thunderstorm    
Averages and records for this station are not official NWS values.
T = Trace of Precipitation, MM = Missing Value Source: NWS Daily Summary

Daily Weather History Graph

Daily Weather History Graph

Search for Another Location

Airport or City:

Trip Planner

Search our weather history database for the weather conditions in past years. The results will help you decide how hot, cold, wet, or windy it might be!

Date:

Astronomy

Jul. 19, 2013 Rise Set
Actual Time 5:29 AM CDT 8:49 PM CDT
Civil Twilight 4:52 AM CDT 9:26 PM CDT
Nautical Twilight 4:04 AM CDT 10:14 PM CDT
Astronomical Twilight 3:02 AM CDT 11:15 PM CDT
Moon 5:51 PM CDT (7/19) 2:12 AM CDT (7/19)
Length of Visible Light 16h 33m
Length of Day
15h 19m
Waxing Gibbous, 87% of the Moon is Illuminated
Jul 19
Waxing Gibbous
Jul 22
Full
Jul 29
Last Quarter
Aug 6
New
Aug 14
First Quarter

Hourly Weather History & Observations

Time (CDT) Temp. Heat Index Dew Point Humidity Pressure Visibility Wind Dir Wind Speed Gust Speed Precip Events Conditions
12:53 AM 82.9 °F 85.8 °F 68.0 °F 60% 29.62 in 10.0 mi SW 15.0 mph 23.0 mph N/A   Partly Cloudy
1:14 AM 78.8 °F - 69.8 °F 74% 29.62 in 10.0 mi SW 15.0 mph 20.7 mph 0.02 in Thunderstorm Mostly Cloudy
1:29 AM 80.6 °F 83.9 °F 69.8 °F 70% 29.63 in 10.0 mi SW 18.4 mph 29.9 mph 0.02 in   Scattered Clouds
1:51 AM 75.2 °F - 69.8 °F 83% 29.67 in 2.0 mi NW 11.5 mph 29.9 mph 0.14 in Rain Rain
1:52 AM 75.0 °F - 70.0 °F 84% 29.65 in 2.0 mi NW 11.5 mph 29.9 mph 0.14 in Rain Rain
1:54 AM 73.4 °F - 69.8 °F 88% 29.67 in 3.0 mi NW 9.2 mph 29.9 mph 0.00 in Rain Rain
1:58 AM 73.4 °F - 69.8 °F 88% 29.69 in 1.8 mi NW 12.7 mph 24.2 mph 0.18 in Rain Light Rain
2:00 AM 71.6 °F - 69.8 °F 94% 29.69 in 1.2 mi NW 15.0 mph 24.2 mph 0.28 in Rain , Thunderstorm Heavy Thunderstorms and Rain
2:04 AM 71.6 °F - 69.8 °F 94% 29.66 in 0.8 mi NW 11.5 mph 24.2 mph 0.41 in Rain , Thunderstorm Heavy Thunderstorms and Rain
2:13 AM 69.8 °F - 69.8 °F 100% 29.66 in 1.0 mi SSW 10.4 mph 21.9 mph 0.56 in Rain , Thunderstorm Thunderstorms and Rain
2:18 AM 69.8 °F - 69.8 °F 100% 29.65 in 3.0 mi South 6.9 mph - 0.56 in Rain , Thunderstorm Light Rain
2:25 AM 71.6 °F - 69.8 °F 94% 29.65 in 10.0 mi SSW 8.1 mph - 0.56 in Thunderstorm Overcast
2:46 AM 71.6 °F - 69.8 °F 94% 29.64 in 10.0 mi SW 8.1 mph - 0.56 in   Mostly Cloudy
2:53 AM 72.0 °F - 69.1 °F 91% 29.62 in 10.0 mi SW 10.4 mph - 0.56 in   Mostly Cloudy
3:53 AM 73.0 °F - 69.1 °F 87% 29.63 in 10.0 mi SW 8.1 mph - N/A   Clear
4:53 AM 71.1 °F - 69.1 °F 93% 29.63 in 10.0 mi SW 6.9 mph - N/A   Clear
5:53 AM 72.0 °F - 69.1 °F 91% 29.63 in 10.0 mi West 4.6 mph - N/A   Clear
6:53 AM 73.0 °F - 70.0 °F 90% 29.64 in 10.0 mi WSW 6.9 mph - N/A   Clear
7:53 AM 75.0 °F - 71.1 °F 87% 29.67 in 10.0 mi West 6.9 mph - N/A   Mostly Cloudy
8:53 AM 77.0 °F - 68.0 °F 74% 29.69 in 10.0 mi NW 9.2 mph 18.4 mph N/A   Partly Cloudy
9:53 AM 77.0 °F - 64.0 °F 64% 29.72 in 10.0 mi NW 10.4 mph 20.7 mph N/A   Scattered Clouds
10:53 AM 77.0 °F - 64.0 °F 64% 29.74 in 10.0 mi WNW 15.0 mph 25.3 mph N/A   Partly Cloudy
11:53 AM 77.0 °F - 63.0 °F 62% 29.76 in 10.0 mi WNW 11.5 mph 19.6 mph N/A   Mostly Cloudy
12:53 PM 78.1 °F - 62.1 °F 58% 29.77 in 10.0 mi NW 11.5 mph 20.7 mph N/A   Partly Cloudy
1:53 PM 79.0 °F - 61.0 °F 54% 29.78 in 10.0 mi WNW 11.5 mph 18.4 mph N/A   Scattered Clouds
2:53 PM 78.1 °F - 59.0 °F 52% 29.78 in 10.0 mi WNW 9.2 mph - N/A   Scattered Clouds
3:53 PM 78.1 °F - 57.9 °F 50% 29.78 in 10.0 mi WNW 10.4 mph 20.7 mph N/A   Scattered Clouds
4:53 PM 79.0 °F - 55.9 °F 45% 29.79 in 10.0 mi WNW 11.5 mph - N/A   Clear
5:53 PM 77.0 °F - 54.0 °F 45% 29.79 in 10.0 mi WNW 6.9 mph - N/A   Partly Cloudy
6:53 PM 77.0 °F - 53.1 °F 43% 29.78 in 10.0 mi WNW 5.8 mph - N/A   Clear
7:53 PM 73.0 °F - 55.9 °F 55% 29.78 in 10.0 mi WSW 3.5 mph - N/A   Clear
8:53 PM 64.9 °F - 57.9 °F 78% 29.78 in 10.0 mi SW 4.6 mph - N/A   Clear
9:53 PM 66.0 °F - 57.0 °F 73% 29.80 in 10.0 mi SW 5.8 mph - N/A   Clear
10:53 PM 68.0 °F - 59.0 °F 73% 29.81 in 10.0 mi WSW 4.6 mph - N/A   Overcast
11:53 PM 61.0 °F - 57.0 °F 87% 29.83 in 10.0 mi Calm Calm - N/A   Clear